User: anonymous   Login
Location: South Tamworth Observatory
(43.8246°N, 71.3026°W)
Time: 15:31:02
(UTC-05:00)
Language:

Cosmos 2208 Rocket - Orbit

View from above orbital plane
View from above orbital plane
View from above satellite
View from above satellite

Ground track
Ground track

The orbit data is extracted from the following two-line orbital elements,

1 22081U 92053B   16043.54725252  .00000048  00000-0  26933-4 0  9997
2 22081  74.0425 253.8799 0036242 341.7825  18.2025 14.33303268228549
Epoch (UTC): 12 February 2016 13:08:02
Eccentricity: 0.0036242
inclination: 74.0425°
perigee height: 755 km
apogee height: 806 km
right ascension of ascending node: 253.8799°
argument of perigee: 341.7825°
revolutions per day: 14.33303268
mean anomaly at epoch: 18.2025°
orbit number at epoch: 22854

The dashed part of the orbit path shows where the satellite is in the earth's shadow,  

DLR